[[{"header":{"parameterUnit":"m.s-1","parameterCategory":1,"la1":30.2991,"la2":30.254,"lo1":-89.0895,"lo2":-89.0444,"dy":0.0017,"dx":0.0017,"nx":28,"ny":28,"refTime":"2023-10-26T03:00:00:Z","depth":0,"parameterNumber":2,"parameterNumberName":"U-component_of_WINDS"},"data":[0,0,0,0,0,0,0,0,0,0,0,0,0,0,0,0,0,0,0,0,0,0,0,0,0,0,0,0,0,0,0,0,0,0,0,0,0,0,0,0,0,0,0,0,0,0,0,0,0,0,0,0,0,0,0,0,0,0,-4.6764,-4.6763,0,-4.6717,-4.6717,-4.6716,-4.6536,-4.6532,-4.6528,-4.6524,-4.6479,-4.6481,-4.6484,0,0,0,0,0,0,0,0,0,0,0,0,0,-4.67,-4.6702,-4.6764,-4.6763,-4.6762,-4.6718,-4.6717,-4.6716,-4.6537,-4.6532,-4.6527,-4.6522,-4.6478,-4.6481,-4.6484,0,0,0,0,0,0,0,0,0,0,0,0,0,-4.6698,-4.6703,-4.6764,-4.6668,-4.6659,-4.6718,-4.6717,-4.6716,-4.6538,-4.6532,-4.6526,-4.652,-4.6477,-4.6481,-4.6485,-4.6633,0,0,-4.6497,-4.6499,0,0,0,0,0,0,0,0,-4.6699,-4.6701,-4.6682,-4.6674,-4.6664,-4.6626,-4.6678,-4.6688,-4.654,-4.6584,-4.6524,-4.6517,-4.6533,-4.6532,-4.6537,-4.6631,-4.6629,-4.6497,-4.65,-4.6501,-4.6502,0,0,0,0,0,0,0,-4.6699,-4.6702,-4.6745,-4.6682,-4.6671,-4.6628,-4.6621,-4.6679,-4.6594,-4.658,-4.6566,-4.6563,-4.6527,-4.6534,-4.6535,-4.6629,-4.6497,-4.6501,-4.6503,-4.6505,-4.6845,-4.6851,0,0,0,0,0,0,-4.6712,-4.6703,-4.6747,-4.6744,-4.6666,-4.6634,-4.6626,-4.6645,-4.6593,-4.6579,-4.6569,-4.6555,-4.653,-4.653,-4.6532,-4.6703,-4.6501,-4.6505,-4.6507,-4.6838,-4.6846,-4.6853,0,0,0,0,0,0,-4.6712,-4.6718,-4.6749,-4.672,-4.6721,-4.6642,-4.6664,-4.6647,-4.6653,-4.6584,-4.6569,-4.6591,-4.6525,-4.6527,-4.661,-4.6699,-4.6507,-4.651,-4.683,-4.6841,-4.685,-4.7047,0,0,0,0,0,0,-4.6711,-4.6719,-4.6773,-4.6723,-4.6723,-4.6826,-4.667,-4.6651,-4.6661,-4.6642,-4.6601,-4.6588,-4.652,-4.6605,-4.6614,-4.6701,-4.6514,-4.6822,-4.6835,-4.6847,-4.7032,-4.7062,-4.7088,0,0,0,0,0,-4.6709,-4.6831,-4.6777,-4.6783,-4.6789,-4.6832,-4.6832,-4.675,-4.6669,-4.6723,-4.668,-4.659,-4.6689,-4.6615,-4.6623,-4.6713,-4.6816,-4.6831,-4.6846,-4.7019,-4.7056,-4.7087,0,0,0,0,0,0,-4.6893,-4.6822,-4.6762,-4.687,-4.6859,-4.6801,-4.6867,-4.6792,-4.6803,-4.6786,-4.6686,-4.6678,-4.6776,-4.6753,-4.6672,-4.6856,-4.6737,-4.6755,-4.6866,-4.6901,-4.6929,-4.6931,-4.6517,0,0,0,0,0,-4.6947,-4.6987,-4.6922,-4.7025,-4.7022,-4.6947,-4.6962,-4.6901,-4.6885,-4.6879,-4.684,-4.6829,-4.6858,-4.6878,-4.69,-4.7029,-4.7017,-4.7095,-4.7123,-4.7147,-4.7162,-4.723,-4.7263,-4.6902,-4.6902,-4.6902,0,0,-4.7057,-4.7023,-4.7054,-4.7061,-4.7044,-4.7089,-4.6943,-4.6996,-4.7028,-4.6887,-4.6962,-4.6935,-4.6916,-4.7023,-4.7068,-4.7007,-4.726,-4.7166,-4.7185,-4.7188,-4.7248,-4.7283,-4.7313,-4.6913,-4.6911,-4.6909,0,0,-4.7281,-4.7259,-4.7342,-4.7329,-4.7307,-4.7256,-4.7277,-4.7232,-4.7208,-4.7283,-4.7178,-4.7217,-4.7267,-4.7258,-4.726,-4.7486,-4.7403,-4.7496,-4.7642,-4.7709,-4.7737,-4.7762,-4.7842,-4.7872,-4.7512,-4.7513,-4.7513,0,-4.742,-4.7482,-4.7394,-4.7454,-4.7461,-4.7336,-4.7421,-4.7413,-4.7399,-4.7407,-4.7339,-4.7402,-4.738,-4.7484,-4.7539,-4.7545,-4.7566,-4.7499,-4.774,-4.7764,-4.7786,-4.7861,-4.7892,-4.7524,-4.7523,-4.7522,-4.752,0,-4.7656,-4.7701,-4.7771,-4.7761,-4.7776,-4.7848,-4.7773,-4.7799,-4.7738,-4.7696,-4.7775,-4.7745,-4.776,-4.778,-4.7721,-4.7876,-4.7839,-4.7758,-4.7636,-4.7833,-4.7902,-4.793,-4.754,-4.7536,-4.7533,-4.753,0,0,-4.7989,-4.7933,-4.796,-4.7955,-4.7923,-4.7957,-4.8025,-4.8039,-4.8064,-4.806,-4.8115,-4.8163,-4.8088,-4.8091,-4.803,-4.8089,-4.827,-4.8,-4.7998,-4.8051,-4.844,-4.85,-4.8535,-4.8217,-4.8222,-4.8226,-4.8441,0,-4.8201,-4.8312,-4.8238,-4.8362,-4.8403,-4.8287,-4.8347,-4.8335,-4.8298,-4.8329,-4.8289,-4.8324,-4.8223,-4.8224,-4.8277,-4.8237,-4.8346,-4.822,-4.8267,-4.8269,-4.8273,-4.8571,-4.8634,-4.8838,-4.8468,-4.8472,-4.8475,0,-4.8462,-4.8471,-4.8599,-4.8561,-4.8576,-4.863,-4.8638,-4.8669,-4.8654,-4.8624,-4.863,-4.8555,-4.862,-4.8503,-4.8592,-4.8508,-4.8524,-4.8507,-4.8513,-4.8513,-4.8383,-4.8577,-4.8901,-4.8932,-4.8517,-4.8514,-4.8511,0,-4.8692,-4.8736,-4.8819,-4.8818,-4.8776,-4.8817,-4.8802,-4.8781,-4.8795,-4.8804,-4.8812,-4.8829,-4.8838,-4.8853,-4.8785,-4.8707,-4.8884,-4.8761,-4.8861,-4.8863,-4.8901,-4.8899,-4.9231,-4.8915,-4.8914,-4.8914,-4.8913,0,-4.8935,-4.9018,-4.8922,-4.8972,-4.9063,-4.8978,-4.907,-4.9042,-4.9026,-4.907,-4.8972,-4.9016,-4.8925,-4.896,-4.8908,-4.899,-4.8996,-4.8973,-4.8958,-4.8981,-4.8984,-4.8987,-4.8971,-4.8922,-4.892,-4.8918,-4.8917,0,-4.9206,-4.9144,-4.9227,-4.9182,-4.9172,-4.9241,-4.9202,-4.9248,-4.9207,-4.9265,-4.9273,-4.9209,-4.9245,-4.918,-4.9209,-4.9174,-4.9289,-4.9253,-4.9294,-4.9282,-4.9385,-4.9376,-4.973,-4.9772,-4.9431,-4.9434,-4.9437,0,-4.9363,-4.9425,-4.9387,-4.941,-4.94,-4.9438,-4.9453,-4.9373,-4.9393,-4.9383,-4.943,-4.9459,-4.9477,-4.9542,-4.9498,-4.952,-4.9483,-4.9605,-4.9485,-4.9507,-4.9483,-4.948,-4.9486,-4.9629,-4.9633,-4.9637,-4.9639,0,-4.965,-4.9618,-4.9642,-4.9659,-4.9679,-4.9688,-4.9689,-4.9714,-4.963,-4.9657,-4.9694,-4.9709,-4.9739,-4.9769,-4.9781,-4.9766,-4.969,-4.9678,-4.9702,-4.9725,-4.9746,-4.9735,-4.9359,-4.967,-4.9667,-4.9664,-4.9663,-4.9662,-4.9868,-4.9917,-4.9899,-4.9931,-4.9925,-4.9929,-4.997,-4.9936,-4.9965,-4.9982,-4.9935,-4.9983,-4.997,-4.9978,-4.9972,-5.0009,-4.9955,-4.999,-4.9998,-5.0008,-5.0024,-4.9743,-5.0012,-5.0011,-5.001,-5.0009,-5.0008,0,-5.0148,-5.0132,-5.0163,-5.0168,-5.0194,-5.0122,-5.0121,-5.0147,-5.0191,-5.0185,-5.0206,-5.025,-5.0279,-5.024,-5.0263,-5.0301,-5.0266,-5.0309,-5.0304,-5.0302,-5.0071,-5.0048,-5.0337,-5.0337,-5.0337,-5.0337,-5.0336,-5.0336,-5.0297,-5.0377,-5.0344,-5.0422,-5.0404,-5.0451,-5.0457,-5.0461,-5.0456,-5.0509,-5.0534,-5.0508,-5.0489,-5.051,-5.0535,-5.0523,-5.0535,-5.0591,-5.0566,-5.0351,-5.0319,-5.0288,-5.0265,-5.0595,-5.0595,-5.0793,-5.0795,-5.0797]},{"header":{"parameterUnit":"m.s-1","parameterCategory":1,"la1":30.2991,"la2":30.254,"lo1":-89.0895,"lo2":-89.0444,"dy":0.0017,"dx":0.0017,"nx":28,"ny":28,"refTime":"2023-10-26T03:00:00:Z","depth":0,"parameterNumber":3,"parameterNumberName":"V-component_of_WINDS"},"data":[0,0,0,0,0,0,0,0,0,0,0,0,0,0,0,0,0,0,0,0,0,0,0,0,0,0,0,0,0,0,0,0,0,0,0,0,0,0,0,0,0,0,0,0,0,0,0,0,0,0,0,0,0,0,0,0,0,0,-1.0515,-1.0515,0,-1.0504,-1.0504,-1.0504,-1.051,-1.051,-1.051,-1.0511,-1.0499,-1.0498,-1.0498,0,0,0,0,0,0,0,0,0,0,0,0,0,-1.054,-1.0539,-1.0515,-1.0515,-1.0515,-1.0504,-1.0504,-1.0504,-1.051,-1.051,-1.051,-1.0511,-1.0499,-1.0498,-1.0498,0,0,0,0,0,0,0,0,0,0,0,0,0,-1.0529,-1.0539,-1.0515,-1.0517,-1.0517,-1.0504,-1.0504,-1.0504,-1.051,-1.051,-1.0511,-1.0511,-1.0499,-1.0498,-1.0497,-1.0483,0,0,-1.0495,-1.0494,0,0,0,0,0,0,0,0,-1.053,-1.0528,-1.0517,-1.0517,-1.0517,-1.0509,-1.0508,-1.0497,-1.051,-1.0512,-1.0511,-1.0511,-1.0502,-1.0501,-1.0498,-1.0482,-1.0482,-1.0495,-1.0494,-1.0494,-1.0493,0,0,0,0,0,0,0,-1.053,-1.0529,-1.0511,-1.0517,-1.0516,-1.0517,-1.0516,-1.0506,-1.0505,-1.0512,-1.0513,-1.0511,-1.0502,-1.0498,-1.0497,-1.0482,-1.0495,-1.0494,-1.0493,-1.0493,-1.0451,-1.0451,0,0,0,0,0,0,-1.0531,-1.0529,-1.0511,-1.0511,-1.0524,-1.0516,-1.0515,-1.0511,-1.0505,-1.0504,-1.0511,-1.0511,-1.05,-1.0498,-1.0497,-1.0477,-1.0494,-1.0493,-1.0492,-1.0452,-1.0451,-1.045,0,0,0,0,0,0,-1.0532,-1.053,-1.0512,-1.052,-1.0518,-1.0516,-1.0511,-1.051,-1.0507,-1.0504,-1.0503,-1.0508,-1.05,-1.0498,-1.0486,-1.0477,-1.0492,-1.0492,-1.0452,-1.0451,-1.0451,-1.044,0,0,0,0,0,0,-1.0532,-1.053,-1.0525,-1.052,-1.0517,-1.0501,-1.051,-1.051,-1.0506,-1.0506,-1.0501,-1.05,-1.05,-1.0487,-1.0485,-1.0476,-1.0491,-1.0453,-1.0452,-1.0451,-1.0441,-1.0439,-1.0437,0,0,0,0,0,-1.0533,-1.0523,-1.0524,-1.0522,-1.0511,-1.0501,-1.0499,-1.05,-1.0505,-1.0499,-1.0497,-1.05,-1.0479,-1.0486,-1.0483,-1.0474,-1.0454,-1.0452,-1.0451,-1.0442,-1.0439,-1.0437,0,0,0,0,0,0,-1.0527,-1.0522,-1.0524,-1.0512,-1.0507,-1.0502,-1.0495,-1.0497,-1.0491,-1.0492,-1.0492,-1.0491,-1.0477,-1.0475,-1.0483,-1.0459,-1.0467,-1.0465,-1.0461,-1.0458,-1.0456,-1.0456,-1.049,0,0,0,0,0,-1.0524,-1.0517,-1.0513,-1.0502,-1.0499,-1.0498,-1.0493,-1.0494,-1.0488,-1.0486,-1.0483,-1.0477,-1.0469,-1.0464,-1.0456,-1.0441,-1.0438,-1.0433,-1.0431,-1.0429,-1.0427,-1.0416,-1.0413,-1.0446,-1.0446,-1.0446,0,0,-1.0518,-1.0515,-1.051,-1.0501,-1.0497,-1.0488,-1.0496,-1.0487,-1.048,-1.0485,-1.0472,-1.047,-1.0463,-1.0449,-1.0442,-1.0446,-1.0418,-1.0428,-1.0426,-1.0425,-1.0415,-1.0412,-1.0409,-1.0445,-1.0445,-1.0446,0,0,-1.0503,-1.05,-1.049,-1.0485,-1.0479,-1.0478,-1.0475,-1.047,-1.0468,-1.0455,-1.0458,-1.045,-1.0436,-1.043,-1.0426,-1.0406,-1.0408,-1.0403,-1.0392,-1.0381,-1.0379,-1.0376,-1.0367,-1.0364,-1.0402,-1.0402,-1.0402,0,-1.0496,-1.0483,-1.0484,-1.0474,-1.0469,-1.0473,-1.0461,-1.0457,-1.0449,-1.0444,-1.0449,-1.043,-1.0427,-1.0409,-1.0404,-1.0401,-1.0397,-1.0404,-1.0379,-1.0377,-1.0375,-1.0365,-1.0362,-1.0401,-1.0401,-1.0401,-1.0401,0,-1.0474,-1.0465,-1.0458,-1.0449,-1.0443,-1.0432,-1.043,-1.0424,-1.0425,-1.0422,-1.0408,-1.0404,-1.0394,-1.039,-1.0391,-1.0372,-1.0375,-1.0379,-1.0387,-1.0371,-1.0362,-1.0359,-1.04,-1.04,-1.04,-1.0401,0,0,-1.0455,-1.0445,-1.0442,-1.0437,-1.043,-1.0422,-1.0411,-1.0401,-1.0395,-1.0389,-1.0378,-1.0365,-1.0369,-1.0363,-1.0364,-1.0354,-1.0336,-1.036,-1.036,-1.0354,-1.0311,-1.0306,-1.0303,-1.0337,-1.0337,-1.0336,-1.0311,0,-1.0438,-1.0418,-1.0417,-1.0399,-1.0389,-1.0392,-1.0382,-1.0375,-1.0372,-1.0363,-1.036,-1.035,-1.0357,-1.0353,-1.0344,-1.034,-1.0327,-1.0342,-1.0326,-1.0325,-1.0325,-1.0299,-1.0294,-1.027,-1.0308,-1.0308,-1.0307,0,-1.0415,-1.0407,-1.0387,-1.0378,-1.0374,-1.0365,-1.0355,-1.0347,-1.0339,-1.0337,-1.033,-1.0331,-1.0318,-1.0327,-1.0307,-1.0318,-1.0311,-1.0308,-1.0307,-1.0304,-1.0314,-1.0293,-1.0263,-1.0259,-1.0302,-1.0303,-1.0303,0,-1.04,-1.0384,-1.037,-1.0366,-1.0356,-1.0349,-1.0345,-1.0337,-1.033,-1.0321,-1.0316,-1.0306,-1.03,-1.0291,-1.0288,-1.0296,-1.0268,-1.0278,-1.0264,-1.0264,-1.0257,-1.0258,-1.0224,-1.0256,-1.0257,-1.0257,-1.0257,0,-1.038,-1.0367,-1.0363,-1.0354,-1.0339,-1.0338,-1.0323,-1.0319,-1.0312,-1.0301,-1.0303,-1.0292,-1.029,-1.0279,-1.0277,-1.0259,-1.0257,-1.0254,-1.0253,-1.0253,-1.0253,-1.0247,-1.0248,-1.0256,-1.0256,-1.0256,-1.0256,0,-1.0361,-1.0358,-1.0342,-1.0333,-1.0331,-1.032,-1.0312,-1.0302,-1.0299,-1.0285,-1.0282,-1.0276,-1.0263,-1.0259,-1.0244,-1.0242,-1.0221,-1.0223,-1.0223,-1.0223,-1.0209,-1.0209,-1.0169,-1.0162,-1.0201,-1.0201,-1.02,0,-1.0347,-1.0337,-1.0327,-1.032,-1.0315,-1.0303,-1.0296,-1.0294,-1.0286,-1.0274,-1.0266,-1.0252,-1.0241,-1.0219,-1.0213,-1.0201,-1.0201,-1.0188,-1.0199,-1.0198,-1.0198,-1.0197,-1.0195,-1.0185,-1.0185,-1.0184,-1.0184,0,-1.0323,-1.0321,-1.0311,-1.0299,-1.0289,-1.028,-1.0271,-1.0265,-1.0261,-1.0252,-1.0238,-1.0229,-1.0212,-1.0197,-1.0184,-1.0178,-1.0179,-1.018,-1.0176,-1.0175,-1.0174,-1.0172,-1.0215,-1.0181,-1.0181,-1.0182,-1.0182,-1.0182,-1.0305,-1.0295,-1.0286,-1.0273,-1.0266,-1.0256,-1.0246,-1.0241,-1.0229,-1.0215,-1.0214,-1.0198,-1.0187,-1.0169,-1.0163,-1.0149,-1.0153,-1.0148,-1.0146,-1.0144,-1.0141,-1.0178,-1.0147,-1.0147,-1.0147,-1.0147,-1.0147,0,-1.0279,-1.0272,-1.0261,-1.0247,-1.0236,-1.0239,-1.0228,-1.0218,-1.0204,-1.0195,-1.0183,-1.0165,-1.0151,-1.0143,-1.0128,-1.0118,-1.0118,-1.0114,-1.0114,-1.0112,-1.014,-1.0144,-1.0114,-1.0114,-1.0114,-1.0114,-1.0114,-1.0114,-1.0264,-1.0246,-1.0243,-1.0221,-1.0215,-1.0199,-1.0192,-1.0182,-1.0174,-1.0154,-1.0142,-1.0137,-1.0127,-1.0111,-1.0097,-1.0095,-1.0088,-1.0083,-1.0081,-1.0107,-1.011,-1.0114,-1.0117,-1.0082,-1.0082,-1.0054,-1.0054,-1.0053]}]]